Location: Peebles
(55.6412°N, 3.1714°W)
Time: 05:40:20
(UTC+01:00)

METEOR 2-8 DEB - Pass Details

Date: 06 July 2022
Orbit: 792 x 830 km, 82.5° (Epoch: 08 August)

Event Time Altitude Azimuth Distance (km) Brightness Sun altitude
Rises 23:42:46 0° 221° (SW) 3,317 ? -9.2°
Reaches altitude 10° 23:45:22 10° 230° (SW) 2,384 ? -9.3°
Maximum altitude 23:50:13 34° 295° (WNW) 1,309 ? -9.6°
Drops below altitude 10° 23:55:04 10° 360° (N) 2,380 ? -9.8°
Sets 23:57:41 0° 10° (N) 3,311 ? -9.9°
